Date String (YYYY-MM-DD hh:mm:ss) UTC,Instrument flags,Ambient pressure (hPa),Sample flow (lpm),Bypass flow (lpm),Sample temperature (°C),Ambient temperature (°C),ASC tube jacket temperature (°C),LED temperature (°C),Box temperature (°C),Sample RH (%),Span deviation,Mass concentration (μg/m³),Mass concentration (μg/m³),Mass concentration (μg/m³)
DateTimeUTC,F1_M11,P_M11,Q1_M11,Q2_M11,T1_M11,T2_M11,T3_M11,T4_M11,T5_M11,U1_M11,ZSPAN_M11,X0_M11,X2_M11,X1_M11
2021-10-23 06:00:00,,0820.9,5.01,0.00,29.3,28.3,00.0,38.5,31.1,07.9,0000.0,0006.41,0001.77,0001.24
2021-10-23 06:01:00,,0820.9,4.99,0.00,29.3,28.3,00.0,38.5,31.1,08.1,0000.0,0007.87,0001.78,0001.24
2021-10-23 06:02:00,,0821.0,5.00,0.00,29.3,28.3,00.0,38.5,31.0,08.3,0000.0,0008.05,0001.77,0001.25
2021-10-23 06:03:00,,0820.9,5.01,0.00,29.3,28.4,00.0,38.5,31.0,08.2,0000.0,0008.16,0001.83,0001.26
2021-10-23 06:04:00,,0820.9,5.00,0.00,29.3,28.4,00.0,38.5,31.1,08.1,0000.0,0008.54,0001.89,0001.29
2021-10-23 06:05:00,,0821.0,5.01,0.00,29.3,28.4,00.0,38.5,31.1,07.9,0000.0,0009.08,0001.91,0001.30
2021-10-23 06:06:00,,0820.9,4.99,0.00,29.3,28.4,00.0,38.5,31.1,08.0,0000.0,0009.07,0001.92,0001.31
2021-10-23 06:07:00,,0820.9,5.00,0.00,29.3,28.4,00.0,38.5,31.1,08.0,0000.0,0009.98,0002.05,0001.34
2021-10-23 06:08:00,,0820.9,5.02,0.00,29.3,28.4,00.0,38.5,31.1,08.1,0000.0,0010.11,0002.14,0001.36
2021-10-23 06:09:00,,0820.9,5.00,0.00,29.3,28.4,00.0,38.5,31.0,08.1,0000.0,0009.86,0002.17,0001.38
2021-10-23 06:10:00,,0820.9,4.99,0.00,29.3,28.4,00.0,38.4,31.0,08.1,0000.0,0009.83,0002.17,0001.39
2021-10-23 06:11:00,,0820.9,4.99,0.00,29.3,28.4,00.0,38.4,31.0,08.1,0000.0,0009.22,0002.21,0001.40
2021-10-23 06:12:00,,0820.9,5.00,0.00,29.3,28.4,00.0,38.4,31.1,08.1,0000.0,0008.32,0002.26,0001.42
2021-10-23 06:13:00,,0820.9,5.01,0.00,29.3,28.4,00.0,38.4,31.1,08.1,0000.0,0008.31,0002.29,0001.42
2021-10-23 06:14:00,,0820.9,5.00,0.00,29.3,28.4,00.0,38.4,31.1,08.1,0000.0,0008.61,0002.29,0001.41
2021-10-23 06:15:00,,0820.9,5.00,0.00,29.3,28.5,00.0,38.4,31.1,08.0,0000.0,0008.21,0002.26,0001.40
2021-10-23 06:16:00,,0820.9,5.00,0.00,29.4,28.5,00.0,38.4,31.1,08.0,0000.0,0007.82,0002.28,0001.40
2021-10-23 06:17:00,,0820.8,5.00,0.00,29.4,28.5,00.0,38.4,31.1,08.0,0000.0,0007.54,0002.31,0001.40
2021-10-23 06:18:00,,0820.8,5.00,0.00,29.4,28.5,00.0,38.4,31.1,08.0,0000.0,0005.73,0002.23,0001.41
2021-10-23 06:19:00,,0820.8,5.01,0.00,29.4,28.5,00.0,38.5,31.1,07.9,0000.0,0005.75,0002.18,0001.40
2021-10-23 06:20:00,,0820.8,5.01,0.00,29.4,28.5,00.0,38.5,31.1,07.9,0000.0,0006.01,0002.17,0001.40
2021-10-23 06:21:00,,0820.8,5.00,0.00,29.4,28.5,00.0,38.5,31.1,07.9,0000.0,0007.50,0002.19,0001.38
2021-10-23 06:22:00,,0820.9,5.00,0.00,29.4,28.5,00.0,38.5,31.1,08.0,0000.0,0007.57,0002.17,0001.39
2021-10-23 06:23:00,,0820.9,4.99,0.00,29.4,28.5,00.0,38.5,31.1,08.0,0000.0,0008.25,0002.17,0001.39
2021-10-23 06:24:00,,0820.9,4.99,0.00,29.4,28.5,00.0,38.5,31.1,08.0,0000.0,0008.26,0002.18,0001.39
2021-10-23 06:25:00,,0820.8,5.01,0.00,29.4,28.5,00.0,38.5,31.1,08.0,0000.0,0008.34,0002.25,0001.40
2021-10-23 06:26:00,,0820.8,4.99,0.00,29.4,28.5,00.0,38.5,31.1,08.0,0000.0,0008.75,0002.31,0001.41
2021-10-23 06:27:00,,0820.8,5.00,0.00,29.4,28.5,00.0,38.5,31.1,08.0,0000.0,0008.95,0002.37,0001.42
2021-10-23 06:28:00,,0820.9,5.00,0.00,29.4,28.5,00.0,38.5,31.1,07.9,0000.0,0008.90,0002.40,0001.43
2021-10-23 06:29:00,,0820.8,5.00,0.00,29.4,28.5,00.0,38.5,31.1,07.9,0000.0,0008.90,0002.41,0001.44
2021-10-23 06:30:00,,0820.8,5.00,0.00,29.4,28.5,00.0,38.5,31.1,08.0,0000.0,0008.92,0002.46,0001.44
2021-10-23 06:31:00,,0820.8,5.00,0.00,29.4,28.5,00.0,38.5,31.1,08.0,0000.0,0009.29,0002.52,0001.45
2021-10-23 06:32:00,,0820.9,5.00,0.00,29.4,28.5,00.0,38.5,31.1,08.0,0000.0,0009.33,0002.60,0001.47
2021-10-23 06:33:00,,0820.9,4.98,0.00,29.4,28.5,00.0,38.5,31.1,08.0,0000.0,0010.86,0002.77,0001.48
2021-10-23 06:34:00,,0820.9,5.01,0.00,29.4,28.5,00.0,38.5,31.1,08.1,0000.0,0011.72,0002.89,0001.48
2021-10-23 06:35:00,,0820.8,5.01,0.00,29.4,28.5,00.0,38.5,31.1,08.1,0000.0,0011.82,0003.01,0001.50
2021-10-23 06:36:00,,0820.8,5.00,0.00,29.4,28.5,00.0,38.5,31.1,08.1,0000.0,0012.23,0003.06,0001.50
2021-10-23 06:37:00,,0820.9,5.00,0.00,29.4,28.5,00.0,38.5,31.1,08.1,0000.0,0013.18,0003.10,0001.50
2021-10-23 06:38:00,,0820.8,5.00,0.00,29.4,28.5,00.0,38.5,31.1,08.1,0000.0,0013.50,0003.15,0001.49
2021-10-23 06:39:00,,0820.8,4.99,0.00,29.4,28.5,00.0,38.5,31.1,08.1,0000.0,0013.52,0003.14,0001.48
2021-10-23 06:40:00,,0820.8,4.99,0.00,29.4,28.5,00.0,38.5,31.1,08.1,0000.0,0014.50,0003.22,0001.47
2021-10-23 06:41:00,,0820.7,5.00,0.00,29.4,28.5,00.0,38.5,31.1,08.0,0000.0,0016.11,0003.28,0001.47
2021-10-23 06:42:00,,0820.7,5.00,0.00,29.4,28.5,00.0,38.5,31.1,08.0,0000.0,0016.16,0003.26,0001.46
2021-10-23 06:43:00,,0820.7,4.99,0.00,29.4,28.5,00.0,38.5,31.1,08.0,0000.0,0015.21,0003.20,0001.44
2021-10-23 06:44:00,,0820.7,5.00,0.00,29.4,28.5,00.0,38.5,31.1,08.0,0000.0,0013.56,0003.12,0001.41
2021-10-23 06:45:00,,0820.6,5.00,0.00,29.4,28.5,00.0,38.5,31.1,07.9,0000.0,0012.17,0003.00,0001.38
2021-10-23 06:46:00,,0820.6,5.02,0.00,29.4,28.5,00.0,38.5,31.1,08.0,0000.0,0012.13,0002.83,0001.36
2021-10-23 06:47:00,,0820.6,5.00,0.00,29.4,28.5,00.0,38.5,31.1,08.0,0000.0,0012.36,0002.74,0001.35
2021-10-23 06:48:00,,0820.6,4.99,0.00,29.4,28.5,00.0,38.5,31.1,08.0,0000.0,0011.58,0002.71,0001.32
2021-10-23 06:49:00,,0820.6,5.00,0.00,29.4,28.5,00.0,38.5,31.1,08.0,0000.0,0011.81,0002.63,0001.31
2021-10-23 06:50:00,,0820.6,5.00,0.00,29.4,28.5,00.0,38.5,31.1,08.0,0000.0,0012.43,0002.63,0001.31
2021-10-23 06:51:00,,0820.6,5.00,0.00,29.4,28.5,00.0,38.5,31.1,07.9,0000.0,0011.43,0002.47,0001.30
2021-10-23 06:52:00,,0820.6,5.01,0.00,29.4,28.5,00.0,38.5,31.1,08.0,0000.0,0009.90,0002.38,0001.28
2021-10-23 06:53:00,,0820.6,5.00,0.00,29.4,28.5,00.0,38.5,31.1,08.0,0000.0,0009.24,0002.37,0001.28
2021-10-23 06:54:00,,0820.6,5.00,0.00,29.4,28.5,00.0,38.5,31.1,08.0,0000.0,0010.05,0002.45,0001.29
2021-10-23 06:55:00,,0820.6,4.99,0.00,29.4,28.5,00.0,38.5,31.2,08.0,0000.0,0010.46,0002.51,0001.29
2021-10-23 06:56:00,,0820.6,5.00,0.00,29.4,28.5,00.0,38.5,31.2,08.0,0000.0,0010.64,0002.55,0001.31
2021-10-23 06:57:00,,0820.6,4.99,0.00,29.4,28.5,00.0,38.5,31.2,08.1,0000.0,0010.67,0002.67,0001.35
2021-10-23 06:58:00,,0820.6,5.00,0.00,29.4,28.5,00.0,38.5,31.2,08.1,0000.0,0009.76,0002.78,0001.35
2021-10-23 06:59:00,,0820.6,4.99,0.00,29.4,28.5,00.0,38.5,31.2,08.1,0000.0,0010.22,0002.88,0001.37
